Total_Precipitation_Accumulation
3.88 3.86 3.81 3.75 3.67 3.60 3.83 4.02 3.92 4.24 4.44 4.02 3.59 3.37 3.36 3.48 3.42 3.44 3.21 3.01 2.98 3.25 3.81 4.20 4.15 3.98 3.76 3.59 3.60 3.59 3.45 3.15 2.89 2.61 2.47 2.57 2.60 2.55 2.50 2.51 2.45 2.36 2.27
4.02 4.13 3.96 3.78 3.54 3.42 3.51 3.70 3.85 4.34 4.37 4.18 3.79 3.50 3.31 3.25 3.10 3.04 3.14 3.32 3.18 3.12 3.34 3.86 4.31 4.37 4.29 4.02 3.77 3.72 3.68 3.62 3.35 2.81 2.53 2.59 2.67 2.65 2.62 2.59 2.46 2.31 2.19
3.83 3.81 3.58 3.42 3.37 3.45 3.67 3.66 3.87 4.05 3.79 3.88 3.75 3.53 3.24 2.94 2.77 2.77 2.96 3.22 3.15 3.15 3.39 3.67 4.01 4.28 4.53 4.65 4.48 4.32 4.01 3.74 3.57 3.20 2.83 2.64 2.59 2.55 2.47 2.45 2.44 2.30 2.13
3.31 3.64 3.36 3.21 3.50 3.54 3.69 4.01 4.18 4.06 4.10 4.18 3.90 3.48 3.16 2.98 2.61 2.54 2.59 2.77 3.02 2.79 3.19 3.55 3.77 3.98 4.47 5.08 5.30 5.22 4.81 4.38 4.05 3.77 3.44 3.06 2.86 2.66 2.44 2.29 2.29 2.21 2.04
3.13 3.47 3.45 3.56 3.62 3.75 3.83 3.65 4.13 4.19 4.15 4.22 3.72 3.46 3.06 2.75 2.60 2.42 2.34 2.34 2.60 2.86 3.00 3.10 3.41 3.72 4.29 5.24 5.70 5.79 5.63 5.12 4.44 4.21 4.08 3.83 3.57 3.18 2.79 2.54 2.38 2.19 2.04
3.15 3.57 3.47 3.50 3.55 3.79 3.92 3.87 4.05 4.11 3.87 3.88 3.46 3.41 2.98 2.48 2.39 2.34 2.14 2.16 2.32 2.42 2.82 3.21 3.61 3.36 3.73 4.45 5.03 5.75 6.15 5.80 5.02 4.60 4.60 4.49 4.36 4.00 3.37 2.95 2.73 2.48 2.29
3.19 3.70 3.44 3.74 3.66 3.71 3.78 3.82 3.99 3.92 3.65 3.83 3.94 3.52 2.90 2.42 2.41 2.16 2.11 2.19 2.22 2.27 2.76 3.35 3.65 3.58 3.36 3.45 3.98 4.74 5.46 5.81 5.41 4.92 4.76 4.76 4.82 4.59 3.98 3.45 3.13 2.81 2.58
3.36 3.42 3.70 3.67 3.77 3.93 3.90 3.85 3.99 3.78 3.42 3.71 4.13 4.24 3.50 3.05 2.48 1.90 2.06 2.25 2.49 2.62 2.76 2.99 3.19 3.54 3.59 3.75 3.57 3.70 4.49 5.32 5.62 5.40 5.05 4.74 4.66 4.55 4.27 3.98 3.59 3.28 3.04
3.58 3.61 3.62 3.57 3.64 3.45 3.55 3.65 3.67 3.72 3.64 3.54 3.86 4.30 3.89 3.41 2.93 2.22 2.07 2.16 2.47 2.78 2.81 2.88 3.00 3.35 3.53 4.05 4.21 3.85 3.67 4.15 5.00 5.73 5.65 5.04 4.56 4.37 4.32 4.22 4.09 3.80 3.47
3.38 3.22 3.17 3.37 3.42 3.18 3.31 2.96 3.17 3.41 3.42 3.27 3.57 3.66 3.69 3.71 3.61 2.88 2.37 2.17 2.30 2.54 2.70 2.61 2.74 3.09 3.49 3.97 4.34 4.06 3.42 3.23 3.73 4.81 5.46 5.37 4.96 4.56 4.30 4.34 4.60 4.57 4.11
3.10 2.75 2.81 3.08 3.08 3.01 2.95 2.85 3.09 2.96 2.91 3.03 3.29 3.48 3.55 3.66 3.51 3.30 2.82 2.76 2.70 2.53 2.49 2.52 2.77 2.99 3.28 3.67 4.14 3.90 3.60 3.31 3.11 3.37 4.06 4.67 4.89 4.77 4.65 4.92 5.44 5.73 5.48
2.82 2.50 2.41 2.67 2.85 2.94 2.92 2.90 3.00 2.92 2.99 3.12 3.11 3.15 3.42 3.47 3.46 3.55 3.03 2.86 2.90 2.61 2.49 2.60 2.68 2.93 3.06 3.29 3.38 3.52 3.44 3.24 3.03 2.99 3.21 3.61 3.98 4.33 4.51 4.90 5.52 6.04 6.29
2.48 2.42 2.44 2.63 2.70 2.80 2.68 2.74 2.84 2.84 3.03 3.12 3.04 2.95 3.08 3.14 3.27 3.54 3.45 3.07 2.92 2.72 2.80 2.68 2.54 2.65 2.64 2.81 2.99 3.08 2.82 2.68 2.55 2.54 2.63 2.81 2.93 3.32 3.67 4.19 4.91 5.49 5.81
2.47 2.57 2.56 2.45 2.42 2.52 2.40 2.72 2.66 2.69 2.94 3.04 2.76 3.05 3.08 3.08 3.38 3.63 3.73 3.84 3.43 3.08 3.01 2.92 2.73 2.52 2.60 2.65 2.71 2.67 2.40 2.35 2.05 2.02 2.11 2.24 2.39 2.58 2.89 3.29 3.89 4.31 4.43
2.49 2.65 2.62 2.55 2.43 2.50 2.63 2.94 2.86 2.79 3.02 3.00 3.01 3.26 3.22 3.13 3.28 3.42 3.67 3.96 4.08 3.62 3.32 3.24 3.03 2.66 2.58 2.62 2.66 2.37 2.41 2.38 2.06 1.90 1.80 1.78 1.90 2.04 2.13 2.40 2.82 3.07 3.23
2.37 2.62 2.77 2.66 2.51 2.54 2.72 2.94 2.91 3.05 3.24 3.29 3.39 3.50 3.46 3.26 3.36 3.41 3.47 3.73 4.10 4.02 3.53 3.07 2.87 2.54 2.42 2.26 2.54 2.32 2.35 2.38 2.11 1.93 1.74 1.66 1.70 1.75 1.76 1.82 2.12 2.42 2.60
2.48 2.55 2.67 2.65 2.56 2.60 2.75 2.82 2.79 3.12 3.28 3.33 3.34 3.37 3.32 3.49 3.50 3.35 3.47 3.65 3.94 4.02 3.55 2.92 2.77 2.73 2.74 2.62 2.64 2.50 2.33 2.28 2.05 1.95 1.75 1.68 1.68 1.71 1.74 1.76 1.89 2.07 2.15
2.48 2.43 2.51 2.51 2.39 2.46 2.68 2.68 2.74 3.10 3.33 3.16 3.17 3.21 2.95 3.07 3.19 3.02 3.16 3.23 3.36 3.62 3.50 3.12 3.03 2.98 2.96 2.88 2.90 2.87 2.51 2.24 1.93 1.96 1.75 1.67 1.69 1.69 1.71 1.73 1.79 1.88 2.04
2.22 2.25 2.27 2.29 2.38 2.58 2.66 2.63 2.68 2.72 2.77 2.83 3.06 3.20 3.00 3.00 2.87 2.87 2.91 2.87 2.94 3.05 3.33 3.20 3.03 3.09 3.01 3.03 3.01 2.82 2.61 2.42 1.97 1.92 1.89 1.77 1.70 1.65 1.62 1.63 1.67 1.80 2.04
2.05 2.12 2.21 2.31 2.41 2.50 2.52 2.61 2.68 2.57 2.56 2.63 2.80 2.91 2.90 2.81 2.69 2.81 2.74 2.75 2.83 3.01 3.22 3.27 3.11 3.21 3.20 3.17 3.28 3.06 3.09 2.82 2.51 2.14 2.10 1.96 1.90 1.85 1.77 1.66 1.61 1.67 1.90
2.10 2.20 2.28 2.31 2.31 2.26 2.16 2.27 2.37 2.43 2.60 2.54 2.45 2.40 2.38 2.41 2.37 2.44 2.29 2.52 2.79 2.94 3.03 3.08 3.08 3.24 3.37 3.47 3.31 3.27 3.34 3.20 2.92 2.53 2.37 2.12 2.05 1.94 1.95 1.92 1.79 1.69 1.71
2.26 2.28 2.25 2.30 2.23 1.90 2.11 2.20 2.22 2.33 2.50 2.50 2.35 2.20 2.07 2.02 1.94 1.99 1.96 2.08 2.40 2.61 2.75 2.91 2.88 3.00 3.23 3.45 3.61 3.60 3.49 3.37 3.21 2.97 2.89 2.73 2.54 2.46 2.32 2.13 2.07 1.92 1.79
2.41 2.34 2.24 2.22 2.21 2.28 2.37 2.16 2.01 1.98 2.12 2.19 2.16 2.11 1.81 1.70 1.89 1.86 1.93 1.92 1.94 2.10 2.29 2.57 2.66 2.60 2.82 3.14 3.50 3.40 3.58 3.66 3.52 3.46 3.50 3.27 2.96 2.72 2.44 2.26 2.15 1.85 1.72
2.55 2.54 2.45 2.35 2.34 2.31 2.29 2.06 2.05 1.95 1.97 1.99 2.01 2.03 1.98 1.90 1.95 2.09 2.07 1.99 1.86 1.84 1.98 2.05 2.16 2.30 2.55 2.94 3.28 3.25 3.34 3.45 3.43 3.39 3.47 3.36 3.02 2.82 2.51 2.37 2.37 2.06 1.74
2.60 2.54 2.46 2.49 2.46 2.47 2.52 2.29 2.28 2.10 2.11 2.12 2.16 2.18 2.14 2.04 2.19 2.12 2.02 2.00 1.95 1.95 2.05 2.15 2.08 2.14 2.38 2.57 2.80 2.92 2.94 3.06 2.94 2.84 3.04 3.20 3.10 3.02 2.82 2.58 2.46 2.29 1.84
2.63 2.63 2.63 2.60 2.60 2.61 2.83 2.62 2.45 2.26 2.27 2.28 2.41 2.41 2.45 2.29 2.27 2.19 2.03 2.05 2.04 2.09 2.21 2.14 2.09 2.02 2.03 2.30 2.61 2.64 2.87 3.14 3.01 2.74 2.49 2.68 2.82 3.08 3.15 2.85 2.61 2.45 2.28